sat.trackr.live / text

‹ back to catalog

2025-313BF

NORAD 67755 · 2025-313BF

PAYLOAD ACTIVE UNKNOWN

§ Identity

Operator
Country
TBD
Launch date
2025-12-28
Launch site
VOSTO
Launch vehicle
Mass (kg)
RCS (m²)

External: N2YO · Heavens-Above · Gunter

§ Orbital elements

Epoch: 2026-08-11T19:15:20.829888Z

Period
87.86 min
Inclination
97.3468°
Eccentricity
0.0021320
Mean motion
16.38993083 rev/d
Perigee alt
154.5 km
Apogee alt
182.4 km
Semi-major
6,546.6 km
B*
1.1717e-3
RAAN
304.4179°
Arg perigee
277.9063°
Mean anomaly
81.9817°
Rev number
3,053

§ Raw data

2025-313BF1 67755U 25313BF  26223.80232442  .17709633  25364-5  11717-2 0  99942 67755  97.3468 304.4179 0021320 277.9063  81.9817 16.38993083 30534

JSON: /api/v1/satellites/67755 · /tle

For live sub-satellite position, see the globe view (requires WebGL).

§ Visibility from observer

Set your observer location to see the next 7 days of passes ≥ 10°. The values pass through the URL so the page stays shareable.

No JS? Fill the form by hand. The geolocation button needs JavaScript.